Regional Weather Roundup
Issued by NWS

Home | Current Version | Previous Version | Graphics & Text | Print | Product List | Glossary On
Versions: 1 2 3 4 5 6 7 8 9 10 11 12 13 14 15 16 17 18 19 20 21 22 23 24 25 26 27 28 29 30 31 32 33 34 35 36 37 38 39 40 41 42 43 44 45 46 47 48 49 50
000
ASUS45 KBOU 010707
RWRCO

WEATHER ROUNDUP FOR COLORADO
NATIONAL WEATHER SERVICE DENVER/BOULDER CO
100 AM MDT TUE SEP 01 2015

NOTE: "FAIR" INDICATES FEW OR NO CLOUDS BELOW 12000 FEET WITH NO
SIGNIFICANT WEATHER AND/OR OBSTRUCTIONS TO VISIBILITY.

COZ001>005-013-030-031-010800-
...NORTHWEST COLORADO...

CITY           SKY/WX    TMP DP  RH WIND       PRES   REMARKS
CRAIG          PTCLDY    51  45  79 SE3       30.21F
HAYDEN         NOT AVBL
MEEKER         CLEAR     52  48  86 E3        30.23F
MOUNT WERNER   NOT AVBL
STEAMBOAT SPGS PTCLDY    48  44  85 NW3       30.26F
WALDEN         PTCLDY    43  37  81 SE6       30.32F
$$

COZ006>008-011-010800-
...WEST CENTRAL VALLEYS...

CITY           SKY/WX    TMP DP  RH WIND       PRES   REMARKS
GRAND JUNCTION CLEAR     65  53  65 S3        30.09S
MONTROSE       PTCLDY    62  51  67 CALM      30.19S
EAGLE          MOCLDY    54  48  82 CALM      30.29R
RIFLE          PTCLDY    60  51  72 SE5       30.17F
DELTA          PTCLDY    65  53  65 NE5       30.15R
NUCLA          PTCLDY    63  43  48 E9        30.23S
$$

COZ017>023-064>068-010800-
...SOUTHWEST COLORADO...

CITY           SKY/WX    TMP DP  RH WIND       PRES   REMARKS
DURANGO        MOCLDY    55  43  63 NE3       30.25R
CORTEZ         CLEAR     59  46  62 E6        30.20S
PAGOSA SPRINGS MOCLDY    51  40  67 CALM      30.32S
TELLURIDE      MOCLDY    53  47  78 E5        30.43S
WOLF CREEK PAS PTCLDY    43  36  75 SW13      30.62S
$$

COZ009-010-012-014-032>034-037-058>063-010800-
...CENTRAL COLORADO...

CITY           SKY/WX    TMP DP  RH WIND       PRES   REMARKS
ASPEN          PTCLDY    51  45  79 S6        30.32F
BUENA VISTA    PTCLDY    53  44  71 CALM      30.33S
COPPER MTN     PTCLDY    50  32  50 SW6       30.59S
BERTHOUD PASS  FAIR      39  28  65 W17G25    30.61F
COTTONWOOD PAS PTCLDY    57  32  38 W3        30.45S
GUNNISON       PTCLDY    50  41  71 CALM      30.36R
KREMMLING      MOCLDY    46  41  81 CALM      30.34R
LEADVILLE      PTCLDY    42  35  76 NE5       30.44F
SALIDA         PTCLDY    57  46  67 NW5       30.37S
SUNLIGHT       PTCLDY    48  43  81 CALM      30.53S
WILKERSON PASS MOCLDY    46  37  71 SW3       30.57S
$$

COZ069>075-010800-
...SAN LUIS VALLEY/SANGRE DE CRISTO MOUNTAINS...

CITY           SKY/WX    TMP DP  RH WIND       PRES   REMARKS
ALAMOSA        MOCLDY    51  49  92 S6        30.31R
LA VETA PASS   MOCLDY    52  41  66 MISG      30.48S
SAGUACHE       MOCLDY    50  45  81 N5        30.34S
$$

COZ035-036-038>040-010800-
...NORTHERN COLORADO FRONT RANGE...

CITY           SKY/WX    TMP DP  RH WIND       PRES   REMARKS
DENVER INTL AP MOCLDY    61  53  75 SW6       30.14F
DMNS CITY PARK   N/A     61  55  81 E8        30.13F
AURORA         MOCLDY    58  55  90 S5        30.17S
FRONT RANGE AP NOT AVBL
ERIE MUNI ARPT PTCLDY    59  56  91 CALM      30.11F
BOULDER MUN AP PTCLDY    61  52  72 S3        30.12F
CENTENNIAL     MOCLDY    57  54  89 SE5       30.17F
BROOMFIELD     PTCLDY    61  52  72 CALM      30.15F
FORT COLLINS   PTCLDY    63  52  67 SE6       30.11F
LONGMONT       PTCLDY    59  53  82 NW5       30.12F
$$

COZ041-046-047-076>085-087-088-010800-
...PIKES PEAK/PALMER DIVIDE AND SOUTHERN FOOTHILLS...

CITY           SKY/WX    TMP DP  RH WIND       PRES   REMARKS
COLO. SPRINGS  MOCLDY    64  50  60 NW6       30.20S
A. F. ACADEMY  MOCLDY    57  51  82 N10       30.22S
ELLICOTT       MOCLDY   N/A N/A N/A N6        30.17F
FALCON         MOCLDY    61  49  65 MISG      30.24F
FORT CARSON    MOCLDY    62  53  72 NW10      30.16S
LIMON          MOCLDY    56  55  97 NW5       30.13F
MONUMENT HILL  MOCLDY    54  50  87 SW8       30.25F
TRINIDAD       MOCLDY    65  50  58 SE3       30.17F
$$

COZ042>045-048>051-090-091-010800-
...NORTHEAST COLORADO...

CITY           SKY/WX    TMP DP  RH WIND       PRES   REMARKS
GREELEY ARPT   PTCLDY    55  48  76 CALM      30.10F
AKRON          MOCLDY    60  57  89 W9        30.08S
BURLINGTON     CLOUDY    64  60  87 NW8       30.04R
WRAY           CLOUDY    65  61  84 N8        29.99F
STERLING       MOCLDY    59  57  94 W3        30.03F
HOLYOKE        RAIN      64  61  88 E7        30.01F
FORT MORGAN    MOCLDY    56  54  92 W7        30.09S
$$

COZ086-089-092>099-010800-
...SOUTHEAST COLORADO...

CITY           SKY/WX    TMP DP  RH WIND       PRES   REMARKS
PUEBLO         PTCLDY    66  54  65 W6        30.11R
LA JUNTA       CLOUDY    69  57  65 W5        30.08R
LAMAR          CLOUDY    67  61  81 S8        30.03R
SPRINGFIELD      N/A     68  54  60 W6        30.10S
$$



USA.gov is the U.S. government's official web portal to all federal, state and local government web resources and services.